QPF
0.01 0.00 0.01 0.01 0.00 0.00 0.01 0.01 0.01 0.01 0.01 0.01 0.00 0.00 0.00 0.00 0.01 0.01 0.01 0.01 0.01 0.01 0.02 0.02 0.02 0.02 0.02 0.02 0.02 0.02 0.02 0.02 0.02 0.02 0.03 0.04 0.03 0.04 0.04 0.03 0.03 0.04 0.04 0.04
0.01 0.00 0.01 0.01 0.00 0.00 0.00 0.01 0.01 0.01 0.01 0.00 0.00 0.00 0.00 0.01 0.01 0.02 0.02 0.01 0.01 0.01 0.01 0.02 0.03 0.03 0.03 0.03 0.03 0.03 0.02 0.02 0.02 0.02 0.02 0.03 0.04 0.04 0.04 0.04 0.04 0.04 0.04 0.04
0.01 0.00 0.01 0.01 0.01 0.00 0.00 0.01 0.01 0.01 0.01 0.01 0.01 0.01 0.01 0.01 0.01 0.02 0.02 0.01 0.01 0.01 0.01 0.01 0.02 0.03 0.04 0.03 0.03 0.03 0.03 0.03 0.03 0.02 0.02 0.02 0.04 0.04 0.05 0.05 0.05 0.05 0.05 0.06
0.03 0.02 0.02 0.01 0.00 0.00 0.00 0.01 0.01 0.01 0.01 0.01 0.01 0.01 0.01 0.01 0.02 0.02 0.02 0.02 0.02 0.01 0.02 0.02 0.02 0.03 0.04 0.04 0.04 0.04 0.04 0.04 0.04 0.04 0.04 0.03 0.03 0.04 0.05 0.06 0.06 0.05 0.05 0.06
0.04 0.03 0.01 0.01 0.00 0.00 0.01 0.01 0.01 0.01 0.01 0.01 0.01 0.02 0.02 0.01 0.02 0.02 0.03 0.03 0.03 0.02 0.02 0.02 0.02 0.02 0.04 0.05 0.05 0.05 0.05 0.05 0.06 0.05 0.05 0.04 0.04 0.04 0.04 0.05 0.06 0.06 0.06 0.05
0.05 0.04 0.02 0.01 0.01 0.01 0.01 0.02 0.01 0.01 0.02 0.01 0.01 0.02 0.02 0.02 0.02 0.02 0.03 0.03 0.03 0.03 0.02 0.02 0.02 0.02 0.03 0.05 0.06 0.06 0.06 0.06 0.05 0.06 0.06 0.05 0.05 0.04 0.04 0.04 0.05 0.06 0.06 0.06
0.04 0.04 0.02 0.01 0.01 0.01 0.02 0.02 0.01 0.01 0.02 0.01 0.01 0.01 0.02 0.02 0.02 0.02 0.03 0.03 0.03 0.03 0.03 0.03 0.03 0.03 0.03 0.04 0.05 0.06 0.06 0.06 0.06 0.05 0.05 0.06 0.05 0.05 0.04 0.04 0.05 0.05 0.05 0.05
0.03 0.04 0.03 0.01 0.00 0.01 0.01 0.01 0.01 0.01 0.01 0.02 0.01 0.01 0.01 0.02 0.02 0.02 0.03 0.03 0.03 0.03 0.03 0.03 0.03 0.03 0.03 0.04 0.05 0.06 0.06 0.06 0.07 0.06 0.05 0.05 0.06 0.05 0.05 0.05 0.05 0.05 0.04 0.04
0.02 0.02 0.01 0.01 0.01 0.01 0.01 0.01 0.01 0.01 0.02 0.02 0.01 0.01 0.01 0.02 0.02 0.02 0.03 0.03 0.03 0.03 0.03 0.03 0.03 0.04 0.04 0.04 0.05 0.05 0.06 0.06 0.06 0.07 0.06 0.05 0.05 0.05 0.05 0.05 0.05 0.04 0.04 0.04
0.01 0.01 0.01 0.01 0.01 0.01 0.01 0.01 0.01 0.01 0.01 0.02 0.02 0.02 0.02 0.02 0.02 0.02 0.02 0.02 0.03 0.03 0.03 0.03 0.03 0.03 0.04 0.04 0.04 0.05 0.05 0.06 0.06 0.06 0.06 0.06 0.05 0.05 0.05 0.05 0.05 0.04 0.04 0.04
0.01 0.01 0.01 0.01 0.01 0.01 0.01 0.01 0.01 0.01 0.01 0.01 0.02 0.02 0.02 0.02 0.02 0.02 0.02 0.02 0.02 0.02 0.03 0.03 0.03 0.03 0.03 0.04 0.04 0.04 0.04 0.05 0.05 0.05 0.06 0.06 0.05 0.05 0.05 0.04 0.04 0.04 0.04 0.03
0.02 0.01 0.01 0.01 0.01 0.01 0.01 0.01 0.02 0.02 0.02 0.02 0.02 0.02 0.02 0.02 0.02 0.02 0.02 0.02 0.02 0.02 0.02 0.03 0.02 0.03 0.03 0.03 0.04 0.04 0.04 0.04 0.04 0.04 0.05 0.05 0.05 0.05 0.05 0.04 0.04 0.04 0.03 0.03
0.02 0.02 0.02 0.01 0.01 0.01 0.01 0.01 0.01 0.01 0.02 0.02 0.02 0.02 0.02 0.02 0.02 0.02 0.02 0.02 0.02 0.02 0.02 0.02 0.02 0.03 0.03 0.03 0.03 0.03 0.03 0.03 0.03 0.03 0.04 0.04 0.04 0.04 0.04 0.04 0.04 0.04 0.03 0.03
0.02 0.02 0.01 0.01 0.01 0.01 0.01 0.01 0.01 0.01 0.02 0.02 0.02 0.02 0.02 0.02 0.02 0.02 0.02 0.02 0.02 0.02 0.02 0.02 0.02 0.02 0.02 0.02 0.02 0.02 0.02 0.02 0.02 0.02 0.03 0.03 0.03 0.04 0.03 0.03 0.03 0.04 0.03 0.03
0.02 0.02 0.02 0.01 0.01 0.01 0.01 0.01 0.01 0.01 0.02 0.02 0.02 0.02 0.02 0.02 0.02 0.02 0.02 0.02 0.02 0.02 0.02 0.02 0.02 0.02 0.02 0.02 0.02 0.02 0.02 0.02 0.02 0.02 0.02 0.02 0.02 0.03 0.03 0.03 0.03 0.02 0.02 0.02
0.02 0.01 0.01 0.01 0.01 0.01 0.01 0.02 0.01 0.02 0.02 0.02 0.02 0.02 0.02 0.02 0.01 0.02 0.02 0.02 0.02 0.02 0.02 0.02 0.02 0.02 0.02 0.02 0.01 0.01 0.01 0.01 0.01 0.01 0.01 0.01 0.02 0.02 0.02 0.02 0.02 0.02 0.02 0.02
0.01 0.01 0.01 0.01 0.02 0.02 0.02 0.02 0.02 0.02 0.02 0.02 0.02 0.02 0.01 0.01 0.01 0.01 0.01 0.01 0.01 0.01 0.01 0.01 0.01 0.01 0.01 0.01 0.01 0.01 0.01 0.01 0.01 0.01 0.01 0.01 0.01 0.01 0.02 0.02 0.02 0.02 0.02 0.01
0.01 0.01 0.01 0.02 0.02 0.01 0.01 0.01 0.01 0.01 0.01 0.01 0.01 0.01 0.01 0.01 0.01 0.01 0.01 0.01 0.01 0.01 0.01 0.01 0.01 0.01 0.01 0.01 0.01 0.01 0.01 0.01 0.01 0.01 0.01 0.01 0.01 0.01 0.01 0.02 0.02 0.02 0.02 0.02
0.01 0.01 0.01 0.01 0.01 0.01 0.01 0.01 0.01 0.01 0.01 0.01 0.01 0.01 0.01 0.01 0.01 0.01 0.01 0.01 0.01 0.01 0.01 0.01 0.01 0.01 0.01 0.00 0.01 0.01 0.01 0.01 0.01 0.01 0.01 0.01 0.01 0.01 0.01 0.01 0.01 0.01 0.01 0.02
0.01 0.01 0.00 0.00 0.00 0.00 0.00 0.00 0.00 0.00 0.00 0.00 0.01 0.01 0.01 0.01 0.01 0.01 0.01 0.01 0.01 0.01 0.01 0.01 0.01 0.01 0.00 0.00 0.01 0.01 0.01 0.00 0.00 0.00 0.00 0.00 0.01 0.01 0.01 0.01 0.01 0.01 0.01 0.01
0.00 0.00 0.00 0.00 0.00 0.00 0.00 0.00 0.00 0.00 0.01 0.01 0.01 0.01 0.01 0.01 0.01 0.01 0.01 0.01 0.01 0.01 0.01 0.01 0.01 0.01 0.00 0.01 0.01 0.01 0.00 0.00 0.00 0.00 0.00 0.00 0.00 0.00 0.00 0.00 0.00 0.01 0.01 0.01
0.00 0.00 0.00 0.00 0.00 0.00 0.00 0.00 0.01 0.01 0.01 0.01 0.01 0.01 0.01 0.01 0.01 0.01 0.01 0.01 0.01 0.01 0.01 0.01 0.01 0.01 0.01 0.01 0.01 0.01 0.00 0.00 0.00 0.00 0.00 0.00 0.00 0.00 0.00 0.00 0.00 0.00 0.01 0.01
0.00 0.00 0.00 0.00 0.01 0.01 0.01 0.01 0.01 0.01 0.01 0.01 0.01 0.01 0.01 0.01 0.01 0.01 0.01 0.01 0.01 0.01 0.01 0.01 0.01 0.01 0.01 0.02 0.01 0.00 0.00 0.00 0.00 0.00 0.00 0.00 0.00 0.00 0.01 0.01 0.01 0.01 0.01 0.01
0.00 0.01 0.01 0.01 0.01 0.01 0.01 0.01 0.01 0.01 0.01 0.01 0.01 0.01 0.01 0.01 0.01 0.01 0.01 0.01 0.01 0.01 0.01 0.01 0.01 0.01 0.01 0.01 0.01 0.00 0.00 0.00 0.00 0.00 0.00 0.00 0.00 0.00 0.00 0.01 0.01 0.01 0.01 0.01
0.01 0.01 0.01 0.01 0.01 0.01 0.01 0.01 0.01 0.01 0.01 0.01 0.01 0.01 0.01 0.01 0.01 0.01 0.01 0.01 0.01 0.01 0.01 0.00 0.01 0.01 0.01 0.01 0.01 0.01 0.00 0.00 0.00 0.01 0.00 0.00 0.00 0.00 0.00 0.00 0.01 0.01 0.01 0.01
0.00 0.01 0.01 0.01 0.01 0.01 0.01 0.01 0.01 0.01 0.01 0.01 0.01 0.01 0.01 0.01 0.01 0.01 0.01 0.00 0.00 0.00 0.00 0.00 0.00 0.00 0.00 0.00 0.01 0.01 0.01 0.01 0.00 0.01 0.01 0.00 0.00 0.00 0.00 0.00 0.01 0.01 0.01 0.01
0.01 0.01 0.01 0.01 0.01 0.01 0.01 0.01 0.01 0.01 0.01 0.01 0.01 0.01 0.01 0.01 0.01 0.00 0.00 0.00 0.00 0.00 0.00 0.00 0.00 0.00 0.00 0.00 0.00 0.00 0.01 0.01 0.01 0.01 0.00 0.00 0.00 0.00 0.01 0.01 0.01 0.01 0.01 0.01
MSLP
1016.25 1015.94 1015.78 1015.83 1016.16 1016.78 1017.69 1018.86 1020.23 1021.71 1023.23 1024.69 1026.02 1027.15 1028.07 1028.76 1029.23 1029.52 1029.67 1029.71 1029.70 1029.65 1029.59 1029.52 1029.45 1029.38 1029.30 1029.22 1029.13 1029.05 1028.98 1028.94 1028.93 1028.94 1028.99 1029.06 1029.15 1029.24 1029.33 1029.42 1029.50 1029.58 1029.65 1029.72
1016.97 1016.84 1016.88 1017.13 1017.63 1018.39 1019.40 1020.60 1021.96 1023.39 1024.82 1026.18 1027.40 1028.44 1029.28 1029.90 1030.33 1030.58 1030.69 1030.68 1030.60 1030.46 1030.28 1030.07 1029.83 1029.58 1029.32 1029.06 1028.82 1028.60 1028.42 1028.29 1028.21 1028.19 1028.21 1028.27 1028.35 1028.44 1028.54 1028.64 1028.73 1028.82 1028.90 1028.99
1017.77 1017.88 1018.17 1018.66 1019.37 1020.28 1021.38 1022.61 1023.93 1025.27 1026.57 1027.78 1028.83 1029.71 1030.41 1030.92 1031.25 1031.43 1031.47 1031.41 1031.26 1031.04 1030.77 1030.45 1030.09 1029.70 1029.30 1028.91 1028.54 1028.21 1027.93 1027.72 1027.58 1027.51 1027.50 1027.53 1027.60 1027.68 1027.77 1027.86 1027.95 1028.04 1028.13 1028.22
1018.65 1019.04 1019.61 1020.36 1021.28 1022.35 1023.54 1024.78 1026.04 1027.25 1028.39 1029.39 1030.23 1030.91 1031.42 1031.76 1031.95 1032.03 1031.99 1031.86 1031.64 1031.37 1031.03 1030.64 1030.20 1029.74 1029.25 1028.77 1028.32 1027.91 1027.56 1027.29 1027.09 1026.97 1026.91 1026.91 1026.94 1026.99 1027.06 1027.13 1027.20 1027.27 1027.35 1027.42
1019.63 1020.30 1021.15 1022.15 1023.27 1024.48 1025.72 1026.95 1028.12 1029.19 1030.13 1030.91 1031.51 1031.95 1032.24 1032.40 1032.44 1032.38 1032.24 1032.04 1031.78 1031.46 1031.09 1030.67 1030.21 1029.71 1029.19 1028.67 1028.17 1027.72 1027.32 1027.00 1026.75 1026.58 1026.47 1026.42 1026.40 1026.41 1026.44 1026.46 1026.50 1026.53 1026.57 1026.62
1020.73 1021.67 1022.76 1023.96 1025.24 1026.54 1027.80 1028.99 1030.05 1030.95 1031.68 1032.23 1032.59 1032.80 1032.87 1032.84 1032.71 1032.53 1032.30 1032.04 1031.73 1031.40 1031.02 1030.60 1030.15 1029.65 1029.14 1028.62 1028.12 1027.64 1027.22 1026.86 1026.56 1026.33 1026.17 1026.05 1025.97 1025.92 1025.88 1025.86 1025.83 1025.82 1025.81 1025.80
1022.00 1023.14 1024.41 1025.76 1027.12 1028.44 1029.67 1030.76 1031.68 1032.41 1032.94 1033.26 1033.41 1033.41 1033.29 1033.09 1032.83 1032.54 1032.24 1031.92 1031.60 1031.26 1030.90 1030.51 1030.08 1029.62 1029.14 1028.64 1028.14 1027.67 1027.23 1026.83 1026.49 1026.20 1025.97 1025.78 1025.63 1025.50 1025.39 1025.29 1025.20 1025.12 1025.06 1025.00
1023.46 1024.73 1026.08 1027.47 1028.83 1030.10 1031.24 1032.20 1032.96 1033.50 1033.83 1033.97 1033.94 1033.78 1033.51 1033.19 1032.84 1032.48 1032.13 1031.79 1031.46 1031.13 1030.80 1030.44 1030.06 1029.64 1029.19 1028.72 1028.24 1027.77 1027.31 1026.88 1026.49 1026.14 1025.83 1025.56 1025.32 1025.11 1024.92 1024.75 1024.59 1024.44 1024.31 1024.20
1025.09 1026.40 1027.75 1029.08 1030.35 1031.49 1032.46 1033.25 1033.83 1034.19 1034.36 1034.35 1034.18 1033.91 1033.56 1033.17 1032.78 1032.39 1032.03 1031.69 1031.38 1031.08 1030.77 1030.45 1030.11 1029.73 1029.31 1028.86 1028.39 1027.91 1027.42 1026.95 1026.50 1026.08 1025.69 1025.34 1025.02 1024.72 1024.45 1024.20 1023.98 1023.77 1023.59 1023.42
1026.84 1028.10 1029.35 1030.54 1031.62 1032.56 1033.34 1033.92 1034.30 1034.50 1034.53 1034.41 1034.17 1033.85 1033.47 1033.08 1032.69 1032.32 1031.98 1031.67 1031.38 1031.11 1030.83 1030.54 1030.22 1029.86 1029.46 1029.02 1028.54 1028.03 1027.51 1026.99 1026.48 1025.99 1025.53 1025.09 1024.69 1024.31 1023.97 1023.65 1023.37 1023.10 1022.87 1022.66
1028.60 1029.73 1030.81 1031.79 1032.64 1033.34 1033.87 1034.24 1034.44 1034.50 1034.42 1034.24 1033.97 1033.66 1033.31 1032.95 1032.61 1032.28 1031.99 1031.71 1031.46 1031.21 1030.96 1030.68 1030.36 1030.00 1029.60 1029.14 1028.64 1028.10 1027.54 1026.96 1026.39 1025.83 1025.30 1024.79 1024.31 1023.87 1023.46 1023.09 1022.75 1022.44 1022.17 1021.92
1030.24 1031.19 1032.05 1032.78 1033.37 1033.81 1034.11 1034.28 1034.33 1034.27 1034.13 1033.93 1033.68 1033.41 1033.12 1032.84 1032.56 1032.30 1032.06 1031.82 1031.59 1031.35 1031.10 1030.81 1030.48 1030.10 1029.67 1029.18 1028.65 1028.07 1027.46 1026.83 1026.20 1025.58 1024.98 1024.41 1023.88 1023.38 1022.92 1022.51 1022.12 1021.78 1021.47 1021.20
1031.62 1032.38 1033.01 1033.49 1033.83 1034.04 1034.14 1034.14 1034.07 1033.95 1033.79 1033.60 1033.40 1033.20 1032.99 1032.78 1032.58 1032.37 1032.16 1031.95 1031.72 1031.47 1031.20 1030.88 1030.52 1030.11 1029.64 1029.11 1028.53 1027.91 1027.25 1026.58 1025.91 1025.24 1024.59 1023.98 1023.40 1022.87 1022.37 1021.92 1021.50 1021.13 1020.79 1020.50
1032.66 1033.23 1033.65 1033.92 1034.05 1034.08 1034.03 1033.92 1033.79 1033.64 1033.49 1033.35 1033.22 1033.09 1032.95 1032.81 1032.66 1032.49 1032.29 1032.07 1031.82 1031.54 1031.22 1030.85 1030.44 1029.98 1029.47 1028.90 1028.28 1027.62 1026.93 1026.23 1025.52 1024.82 1024.15 1023.50 1022.90 1022.34 1021.82 1021.34 1020.90 1020.50 1020.14 1019.82
1033.32 1033.73 1033.98 1034.09 1034.08 1033.99 1033.86 1033.70 1033.56 1033.43 1033.33 1033.25 1033.19 1033.12 1033.05 1032.95 1032.81 1032.64 1032.42 1032.16 1031.86 1031.51 1031.13 1030.70 1030.23 1029.72 1029.16 1028.56 1027.91 1027.23 1026.53 1025.80 1025.08 1024.37 1023.68 1023.03 1022.41 1021.83 1021.29 1020.79 1020.34 1019.91 1019.53 1019.18
1033.64 1033.92 1034.06 1034.07 1033.99 1033.85 1033.70 1033.56 1033.45 1033.38 1033.35 1033.33 1033.33 1033.31 1033.26 1033.17 1033.02 1032.80 1032.53 1032.20 1031.82 1031.40 1030.93 1030.44 1029.92 1029.35 1028.76 1028.14 1027.48 1026.79 1026.09 1025.37 1024.65 1023.94 1023.25 1022.59 1021.97 1021.38 1020.84 1020.32 1019.84 1019.40 1018.99 1018.61
1033.70 1033.91 1033.98 1033.95 1033.85 1033.73 1033.62 1033.53 1033.49 1033.49 1033.53 1033.58 1033.62 1033.62 1033.57 1033.44 1033.24 1032.95 1032.60 1032.18 1031.70 1031.19 1030.65 1030.10 1029.52 1028.93 1028.32 1027.69 1027.04 1026.37 1025.68 1024.98 1024.28 1023.58 1022.90 1022.25 1021.63 1021.03 1020.47 1019.95 1019.45 1018.98 1018.54 1018.14
1033.62 1033.79 1033.84 1033.81 1033.75 1033.67 1033.62 1033.62 1033.66 1033.73 1033.83 1033.93 1033.99 1033.98 1033.90 1033.71 1033.44 1033.06 1032.60 1032.08 1031.52 1030.93 1030.32 1029.72 1029.11 1028.51 1027.90 1027.28 1026.66 1026.01 1025.36 1024.69 1024.01 1023.34 1022.68 1022.03 1021.41 1020.82 1020.25 1019.70 1019.18 1018.69 1018.23 1017.79
1033.53 1033.68 1033.74 1033.74 1033.71 1033.70 1033.73 1033.79 1033.90 1034.04 1034.18 1034.29 1034.34 1034.30 1034.16 1033.91 1033.54 1033.08 1032.53 1031.92 1031.28 1030.62 1029.98 1029.34 1028.73 1028.14 1027.55 1026.97 1026.39 1025.79 1025.17 1024.54 1023.90 1023.25 1022.61 1021.97 1021.35 1020.75 1020.16 1019.60 1019.06 1018.54 1018.05 1017.58
1033.52 1033.66 1033.73 1033.76 1033.77 1033.81 1033.89 1034.00 1034.15 1034.31 1034.46 1034.56 1034.58 1034.49 1034.29 1033.96 1033.51 1032.96 1032.34 1031.67 1030.98 1030.30 1029.63 1029.00 1028.41 1027.85 1027.30 1026.77 1026.24 1025.69 1025.12 1024.54 1023.93 1023.31 1022.68 1022.05 1021.43 1020.82 1020.22 1019.64 1019.08 1018.53 1018.00 1017.50
1033.60 1033.74 1033.82 1033.86 1033.89 1033.95 1034.05 1034.18 1034.33 1034.48 1034.60 1034.66 1034.63 1034.48 1034.21 1033.82 1033.31 1032.71 1032.04 1031.34 1030.64 1029.95 1029.30 1028.70 1028.15 1027.63 1027.15 1026.67 1026.19 1025.70 1025.18 1024.64 1024.06 1023.47 1022.86 1022.24 1021.61 1020.99 1020.38 1019.78 1019.20 1018.62 1018.06 1017.53
1033.77 1033.90 1033.97 1034.00 1034.03 1034.08 1034.16 1034.27 1034.38 1034.49 1034.56 1034.56 1034.46 1034.25 1033.92 1033.48 1032.93 1032.30 1031.62 1030.93 1030.24 1029.58 1028.98 1028.42 1027.92 1027.47 1027.04 1026.62 1026.20 1025.76 1025.29 1024.78 1024.24 1023.67 1023.08 1022.47 1021.85 1021.23 1020.61 1019.99 1019.38 1018.77 1018.18 1017.60
1033.97 1034.08 1034.12 1034.13 1034.13 1034.14 1034.17 1034.22 1034.28 1034.31 1034.31 1034.23 1034.07 1033.80 1033.43 1032.95 1032.39 1031.76 1031.10 1030.44 1029.79 1029.19 1028.64 1028.14 1027.70 1027.30 1026.93 1026.57 1026.19 1025.80 1025.37 1024.90 1024.40 1023.85 1023.28 1022.69 1022.08 1021.46 1020.84 1020.21 1019.57 1018.94 1018.31 1017.69
1034.10 1034.19 1034.20 1034.17 1034.13 1034.09 1034.05 1034.03 1034.01 1033.96 1033.88 1033.73 1033.50 1033.19 1032.78 1032.29 1031.73 1031.13 1030.51 1029.89 1029.30 1028.76 1028.26 1027.83 1027.44 1027.09 1026.77 1026.44 1026.11 1025.75 1025.35 1024.92 1024.45 1023.94 1023.40 1022.83 1022.24 1021.63 1021.01 1020.38 1019.73 1019.08 1018.41 1017.74
1034.12 1034.17 1034.16 1034.09 1034.00 1033.90 1033.80 1033.71 1033.60 1033.48 1033.32 1033.11 1032.83 1032.48 1032.05 1031.56 1031.02 1030.45 1029.87 1029.31 1028.77 1028.28 1027.85 1027.46 1027.11 1026.80 1026.51 1026.21 1025.91 1025.57 1025.21 1024.81 1024.37 1023.89 1023.38 1022.84 1022.28 1021.70 1021.09 1020.45 1019.80 1019.12 1018.43 1017.71
1033.96 1034.00 1033.95 1033.86 1033.73 1033.59 1033.44 1033.28 1033.11 1032.93 1032.71 1032.44 1032.12 1031.74 1031.30 1030.82 1030.30 1029.76 1029.23 1028.71 1028.23 1027.78 1027.39 1027.03 1026.71 1026.42 1026.14 1025.86 1025.57 1025.25 1024.91 1024.53 1024.12 1023.68 1023.21 1022.71 1022.18 1021.62 1021.02 1020.40 1019.74 1019.05 1018.32 1017.57
1033.64 1033.65 1033.59 1033.48 1033.33 1033.17 1032.99 1032.80 1032.59 1032.36 1032.09 1031.79 1031.44 1031.04 1030.59 1030.12 1029.62 1029.11 1028.61 1028.13 1027.68 1027.27 1026.89 1026.56 1026.25 1025.96 1025.68 1025.40 1025.11 1024.81 1024.48 1024.12 1023.74 1023.32 1022.88 1022.41 1021.91 1021.37 1020.80 1020.18 1019.52 1018.81 1018.07 1017.28
Thickness
5432 5435 5431 5427 5424 5418 5412 5416 5414 5426 5426 5429 5417 5409 5404 5399 5395 5391 5387 5384 5380 5378 5375 5373 5371 5369 5368 5367 5366 5365 5364 5363 5363 5363 5363 5363 5363 5363 5363 5363 5363 5364 5364 5365
5416 5424 5421 5419 5421 5417 5411 5407 5406 5408 5410 5412 5401 5396 5390 5386 5384 5379 5375 5373 5370 5367 5364 5361 5359 5357 5355 5355 5354 5352 5351 5351 5350 5350 5350 5350 5350 5349 5349 5349 5348 5348 5349 5350
5410 5411 5406 5407 5413 5409 5405 5402 5396 5395 5401 5393 5386 5381 5377 5374 5371 5366 5363 5361 5358 5355 5352 5349 5346 5345 5343 5342 5341 5340 5339 5338 5337 5337 5337 5337 5336 5335 5335 5334 5334 5333 5334 5335
5395 5393 5390 5416 5411 5406 5396 5393 5388 5386 5381 5378 5373 5366 5363 5362 5358 5355 5352 5348 5344 5342 5339 5336 5334 5332 5331 5330 5328 5327 5326 5325 5325 5324 5323 5323 5322 5321 5321 5320 5320 5319 5320 5321
5388 5388 5399 5404 5396 5387 5382 5381 5377 5373 5366 5360 5356 5354 5351 5350 5347 5343 5339 5335 5331 5328 5326 5323 5321 5319 5318 5316 5314 5314 5313 5312 5311 5310 5310 5309 5309 5308 5307 5306 5306 5306 5307 5307
5380 5381 5390 5397 5376 5373 5371 5367 5364 5358 5353 5348 5346 5343 5344 5339 5334 5329 5325 5322 5318 5315 5312 5310 5308 5306 5304 5302 5300 5300 5299 5298 5297 5296 5296 5295 5295 5294 5293 5293 5293 5292 5293 5293
5372 5374 5376 5367 5359 5361 5361 5364 5351 5347 5342 5337 5333 5331 5327 5323 5319 5314 5310 5307 5304 5301 5298 5295 5294 5293 5290 5288 5286 5286 5285 5285 5284 5283 5282 5282 5281 5280 5279 5279 5278 5278 5279 5279
5362 5364 5369 5347 5345 5344 5345 5338 5336 5333 5329 5324 5319 5314 5310 5307 5302 5299 5295 5292 5289 5286 5283 5281 5280 5279 5277 5274 5273 5272 5271 5270 5269 5269 5268 5268 5267 5266 5265 5264 5264 5263 5264 5265
5356 5358 5347 5334 5331 5327 5325 5322 5320 5317 5314 5309 5305 5301 5297 5293 5288 5285 5281 5278 5275 5272 5270 5268 5266 5265 5262 5260 5259 5258 5257 5255 5255 5254 5253 5253 5252 5251 5251 5250 5249 5249 5250 5251
5340 5340 5333 5325 5320 5315 5312 5309 5307 5303 5300 5297 5292 5288 5284 5280 5276 5272 5269 5265 5262 5259 5257 5254 5252 5251 5249 5248 5246 5245 5243 5241 5241 5239 5239 5238 5238 5238 5237 5236 5235 5235 5236 5236
5326 5323 5318 5314 5308 5304 5299 5296 5292 5290 5287 5283 5279 5275 5271 5267 5263 5259 5256 5252 5249 5245 5243 5241 5239 5237 5237 5235 5233 5231 5229 5227 5226 5226 5224 5224 5223 5223 5223 5223 5222 5222 5222 5222
5321 5310 5305 5303 5296 5292 5287 5282 5279 5276 5272 5269 5266 5262 5257 5253 5249 5245 5242 5239 5235 5232 5230 5227 5225 5224 5222 5221 5219 5217 5216 5214 5213 5212 5211 5210 5210 5210 5210 5210 5210 5209 5210 5210
5297 5293 5289 5286 5282 5278 5274 5270 5266 5262 5259 5255 5251 5247 5244 5239 5236 5232 5228 5225 5222 5220 5217 5214 5212 5210 5209 5207 5206 5204 5202 5200 5199 5199 5198 5197 5196 5196 5196 5196 5196 5196 5196 5197
5281 5278 5275 5271 5266 5262 5258 5255 5251 5248 5244 5241 5237 5233 5229 5225 5221 5218 5214 5211 5209 5206 5203 5201 5199 5197 5196 5194 5192 5191 5189 5188 5187 5186 5184 5183 5182 5182 5182 5182 5182 5182 5182 5182
5267 5264 5259 5254 5251 5248 5244 5240 5237 5234 5230 5227 5223 5219 5215 5211 5207 5204 5201 5198 5196 5192 5190 5187 5185 5184 5182 5181 5179 5177 5176 5175 5174 5172 5171 5170 5169 5168 5168 5168 5168 5168 5168 5168
5253 5248 5245 5241 5237 5233 5230 5226 5222 5219 5216 5212 5208 5205 5201 5198 5194 5190 5187 5184 5181 5179 5177 5174 5172 5171 5170 5168 5166 5164 5163 5163 5162 5160 5158 5157 5156 5155 5154 5153 5153 5153 5153 5152
5239 5236 5232 5228 5224 5220 5216 5212 5209 5205 5201 5198 5195 5191 5188 5184 5180 5177 5174 5171 5168 5165 5163 5162 5160 5158 5157 5155 5153 5151 5150 5149 5149 5147 5145 5144 5143 5142 5141 5140 5139 5139 5138 5138
5229 5225 5219 5215 5211 5207 5203 5200 5196 5192 5189 5185 5182 5178 5174 5170 5166 5163 5160 5157 5154 5151 5150 5149 5147 5145 5144 5142 5140 5138 5137 5135 5134 5133 5132 5131 5130 5129 5128 5127 5126 5125 5125 5125
5217 5213 5208 5204 5199 5195 5191 5187 5184 5179 5176 5172 5169 5164 5160 5157 5153 5150 5146 5143 5140 5137 5137 5135 5135 5133 5131 5129 5128 5126 5124 5122 5121 5120 5119 5119 5118 5116 5114 5113 5112 5111 5111 5112
5206 5203 5198 5193 5188 5183 5179 5175 5171 5167 5163 5159 5155 5151 5147 5144 5141 5137 5133 5130 5128 5126 5125 5123 5121 5120 5118 5116 5116 5113 5111 5109 5108 5107 5106 5105 5104 5103 5101 5100 5100 5099 5099 5099
5194 5190 5186 5181 5176 5172 5168 5163 5158 5154 5150 5147 5142 5138 5134 5131 5127 5124 5121 5119 5118 5115 5113 5112 5109 5107 5106 5105 5104 5101 5099 5097 5096 5094 5093 5092 5091 5090 5089 5088 5087 5087 5086 5087
5181 5178 5173 5169 5165 5160 5155 5151 5147 5142 5138 5134 5130 5127 5123 5119 5116 5113 5110 5107 5106 5104 5102 5099 5097 5096 5095 5094 5091 5089 5087 5085 5083 5082 5081 5080 5079 5078 5077 5076 5075 5075 5075 5075
5171 5166 5162 5158 5153 5148 5144 5139 5135 5131 5126 5122 5118 5115 5111 5108 5105 5101 5099 5096 5094 5092 5090 5087 5086 5085 5085 5082 5080 5077 5075 5073 5071 5070 5069 5068 5067 5066 5065 5064 5064 5064 5064 5065
5161 5156 5151 5146 5141 5136 5132 5129 5124 5120 5115 5111 5108 5104 5101 5097 5094 5090 5088 5086 5083 5081 5078 5075 5075 5074 5072 5069 5067 5065 5063 5061 5060 5059 5058 5057 5056 5055 5054 5054 5054 5055 5055 5055
5150 5145 5140 5135 5131 5128 5124 5118 5113 5109 5105 5101 5097 5094 5090 5087 5083 5079 5076 5073 5071 5069 5065 5063 5062 5061 5058 5056 5054 5053 5051 5050 5049 5048 5047 5046 5045 5044 5044 5044 5045 5045 5046 5046
5140 5136 5132 5127 5122 5118 5113 5108 5103 5099 5095 5091 5087 5084 5080 5076 5073 5069 5065 5062 5059 5057 5054 5051 5048 5047 5045 5044 5042 5041 5040 5039 5037 5036 5035 5035 5035 5034 5035 5035 5035 5036 5037 5038
5131 5126 5122 5117 5112 5107 5102 5098 5093 5089 5085 5081 5077 5074 5070 5067 5063 5059 5056 5052 5049 5046 5043 5040 5038 5036 5034 5033 5031 5030 5029 5028 5027 5027 5026 5025 5025 5026 5026 5027 5027 5028 5029 5031